Regional Weather Roundup
Issued by NWS

Home | Current Version | Previous Version | Text Only | Print | Product List | Glossary Off
Versions: 1 2 3 4 5 6 7 8 9 10 11 12 13 14 15 16 17 18 19 20 21 22 23 24 25 26 27 28 29 30 31 32 33 34 35 36 37 38 39 40 41 42 43 44 45 46 47 48 49 50

328
ASUS43 KDTX 271310
RWRMI
MICHIGAN HOURLY REGIONAL WEATHER ROUNDUP
NATIONAL WEATHER SERVICE DETROIT/PONTIAC MI
ISSUED BY NATIONAL WEATHER SERVICE GRAND RAPIDS MI
900 AM EDT SUN MAY 27 2018

NOTE: "FAIR" INDICATES FEW OR NO CLOUDS BELOW 12,000 FEET WITH NO
SIGNIFICANT WEATHER AND/OR OBSTRUCTION TO VISIBILITY.

MIZ047>049-052>055-059>063-066>070-074>076-081>083-271400-
SOUTHEAST LOWER MICHIGAN

CITY           SKY/WX    TMP DP  RH WIND       PRES   REMARKS
ADRIAN         FOG       67  67 100 CALM      29.92R VSB 1/4
ALMA           FAIR      70  67  91 S7        29.89S
ANN ARBOR      CLOUDY    69  68  96 CALM      29.91R FOG
BAD AXE        FAIR      71  67  87 S5        29.89S
DETROIT CITY   FAIR      75  68  78 W3        29.90S
DETROIT        FOG       70  66  87 N3        29.91R VSB 1
FLINT          FAIR      68  66  93 SW5       29.90S
GROSSE ILE     FAIR      68  67  97 S3        29.90S FOG
HILLSDALE      FAIR      73  63  68 CALM      29.91S
HOWELL         FAIR      70  69  98 CALM      29.92S FOG

CITY           SKY/WX    TMP DP  RH WIND       PRES   REMARKS
JACKSON        FAIR      74  66  76 CALM      29.91R
MASON          FAIR      72  67  84 CALM      29.92R
MONROE         PTSUNNY   71  69  93 S7        29.90R FOG
MT. CLEMENS    PTSUNNY   68  68 100 CALM      29.88F FOG
PONTIAC        PTSUNNY   69  69 100 CALM      29.90S FOG
PORT HOPE        N/A     64  61  90 E7        29.86S
PORT HURON     FAIR      68  63  83 S3        29.91S HAZE
TRI CITIES     FAIR      68  66  93 SE6       29.87F
YPSILANTI      CLOUDY    71  68  90 VRB3      29.91S FOG
$$
MIZ043>046-050>051-056>058-064>065-071>073-077>080-271400-
SOUTHWEST LOWER MICHIGAN

CITY           SKY/WX    TMP DP  RH WIND       PRES   REMARKS
BATTLE CREEK   FAIR      75  64  68 S5        29.91R
BENTON HARBOR  FAIR      77  67  71 W5        29.88R
BIG RAPIDS     FAIR      70  63  79 S6        29.89S
COLDWATER      FAIR      75  62  63 W3        29.91R
HOLLAND        FAIR      74  64  71 CALM      29.87R
GRAND RAPIDS   FAIR      73  64  73 E6        29.89R
KALAMAZOO      FAIR      75  64  68 S3        29.89S
MARSHALL       FAIR      73  65  77 CALM      29.90S
MOUNT PLEASANT FAIR      70  69  95 SW6       29.87S
MUSKEGON       FAIR      74  62  66 SW7       29.86R
STURGIS        FAIR      75  65  70 SW3       29.89S
$$
MIZ016>042-271400-
NORTHERN LOWER MICHIGAN

CITY           SKY/WX    TMP DP  RH WIND       PRES   REMARKS
ALPENA         FAIR      66  62  87 E3        29.85R
BEAVER ISLAND  FAIR      70  62  76 SW8       29.81S
BELLAIRE       FAIR      74  62  65 S6        29.82S
CADILLAC       FAIR      72  63  72 S8        29.87S
CHARLEVOIX     FAIR      61  56  83 CALM      29.85R
GAYLORD        FAIR      71  61  70 S8        29.86R
HOUGHTON LAKE  FAIR      70  61  73 SW7       29.88R
MANISTEE       FAIR      72  62  71 S5        29.84S
OSCODA         FAIR      72  62  69 SW8       29.85F
PELLSTON       FAIR      70  63  78 CALM      29.82S
TRAVERSE CITY  FAIR      77  62  59 SW7       29.81S
LUDINGTON      FAIR      71  62  71 SE5       29.84S
$$
MIZ007>008-015-271400-
EASTERN UPPER MICHIGAN

CITY           SKY/WX    TMP DP  RH WIND       PRES   REMARKS
KINROSS        CLOUDY    61  59  93 SE5       29.84R
MACKINAC ISLAN FAIR      58  54  84 CALM      29.82S
NEWBERRY       FAIR      66  64  94 SW6       29.82R
S. S. MARIE    CLOUDY    62  61  96 E6        29.83R FOG
$$
MIZ004>006-011>014-085-271400-
CENTRAL UPPER MICHIGAN

CITY           SKY/WX    TMP DP  RH WIND       PRES   REMARKS
MANISTIQUE     FAIR      59  57  95 S3        29.82R
ESCANABA       FAIR      61  57  87 CALM      29.82R
MENOMINEE      FAIR      67  61  81 N3        29.82R
SAWYER-GWINN   MOSUNNY   59  59 100 CALM      29.82S
$$
MIZ001>003-009>011-084-271400-
WESTERN UPPER MICHIGAN

CITY           SKY/WX    TMP DP  RH WIND       PRES   REMARKS
IRON MOUNTAIN  FAIR      68  61  78 NW3       29.82R
HOUGHTON       FAIR      63  54  72 MISG      29.81R
COPPER HARBOR    N/A     45  41  86 N6        29.81R
IRONWOOD       FAIR      64  58  80 CALM      29.85R
$$

ABBREVIATIONS USED IN REMARKS
   TC - TEMPERATURE IN CELSIUS
  WCI - WIND CHILL INDEX
   HX - HEAT INDEX
  VSB - VISIBILITY





USA.gov is the U.S. government's official web portal to all federal, state and local government web resources and services.